Regional Weather Roundup
Issued by NWS

Home | Current Version | Previous Version | Graphics & Text | Print | Product List | Glossary On
Versions: 1 2 3 4 5 6 7 8 9 10 11 12 13 14 15 16 17 18 19 20 21 22 23 24 25 26 27 28 29 30 31 32 33 34 35 36 37 38 39 40 41 42 43 44 45 46 47 48 49 50
848
ASUS45 KSLC 251410
RWRUT

UTAH REGIONAL WEATHER ROUNDUP
NATIONAL WEATHER SERVICE SALT LAKE CITY UT
800 AM MDT MON SEP 25 2017

UTZ001>011-023>025-251500-

NORTHERN UTAH

CITY           SKY/WX    TMP DP  RH WIND       PRES   REMARKS
BRIGHAM CITY   PTCLDY    38  36  90 CALM      30.15R
DUGWAY         PTCLDY    35  33  94 VRB2      30.13R
HILL AFB       CLEAR     40  37  89 NE9       30.13R WCI  33
LOGAN          FOG       40  39  97 CALM      30.14R VSB<1/4
OGDEN          CLEAR     39  37  92 CALM      30.13R
SALT LAKE CITY PTCLDY    42  40  92 SE6       30.13R
TOOELE VALLEY  CLEAR     39  36  87 S9        30.14R WCI  33
WENDOVER       NOT AVBL
HEBER CITY     CLOUDY    37  36  93 CALM      30.14R
WEST JORDAN    CLEAR     38  38 100 SW5       30.14R WCI  34

$$

UTZ011>015-024>027-251500-

CENTRAL/NORTHEAST UTAH

CITY           SKY/WX    TMP DP  RH WIND       PRES   REMARKS
PROVO AIRPORT  PTCLDY    37  35  92 S3        30.15S
MOAB/CANYONLAN CLEAR     38  28  67 CALM      30.07R
DELTA          CLEAR     32  32 100 CALM      30.13S
PRICE          CLEAR     39  30  70 CALM      30.09R
ROOSEVELT      CLEAR     34  32  93 CALM      30.15S
VERNAL         CLEAR     35  33  92 CALM      30.13R

$$

UTZ013>016-019>022-027-251500-

SOUTHERN UTAH

CITY           SKY/WX    TMP DP  RH WIND       PRES   REMARKS
BRYCE CANYON   PTCLDY    23  21  92 W3        30.14R
CEDAR CITY     CLEAR     30  28  92 CALM      30.10S
MILFORD        CLEAR     31  30  96 CALM      30.12R
ST GEORGE      SUNNY     48  27  44 SE5       30.05R
HANKSVILLE     CLEAR     37  30  75 CALM      30.11S
BLANDING         N/A     38  22  52 N3        30.14S

$$

REGIONAL REPORTS     COLORADO/ARIZONA

CITY           SKY/WX    TMP DP  RH WIND       PRES   REMARKS
CRAIG, CO      CLOUDY    32  29  88 CALM      30.15R
GRAND JUNCTION CLEAR     38  32  79 CALM      30.09R
RIFLE, CO      SUNNY     35  31  85 CALM      30.12R
MONTROSE, CO   SUNNY     35  28  75 SE6       30.13R WCI  30
CORTEZ, CO     SUNNY     31  24  75 E6        30.09R WCI  25
PAGE, AZ       CLEAR     49  29  46 CALM      30.05R
GRAND CANYON   PTCLDY    25  15  66 CALM      30.08R
KINGMAN, AZ    CLEAR     46  27  47 E8        29.99R
FLAGSTAFF, AZ  PTCLDY    27  15  61 CALM      30.08R

$$

REGIONAL REPORTS    NEVADA/IDAHO/WYOMING

CITY           SKY/WX    TMP DP  RH WIND       PRES   REMARKS
LAS VEGAS, NV  PTCLDY    57  27  31 S5        29.99R
ELY, NY        CLEAR     24  22  91 S9        30.16R WCI  14
ELKO, NV       CLOUDY    38  32  79 CALM      30.15R
POCATELLO, ID  PTCLDY    36  34  92 S8        30.14R WCI  30
BURLEY, ID     CLEAR     36  30  79 CALM      30.12R
FORT BRIDGER,  CLOUDY    35  35 100 SW8       30.16S WCI  29
EVANSTON, WY   CLOUDY    33  33 100 SW5       30.14S FOG     WCI  29
ROCK SPRINGS,  CLOUDY    35  33  92 NW3       30.12S

$$




USA.gov is the U.S. government's official web portal to all federal, state and local government web resources and services.